Météo par heure à Kithor

Ce jour, 8 Mars, Lundi

Heure Température Précipitation Vent Pression Humidité
00:00 +22°C° 0 mm 4 m/s 738 mmHg 29%
01:00 +21°C° 0 mm 4 m/s 738 mmHg 32%
02:00 +20°C° 0 mm 4 m/s 738 mmHg 35%
03:00 +19°C° 0 mm 3 m/s 738 mmHg 37%
04:00 +19°C° 0 mm 3 m/s 738 mmHg 39%
05:00 +18°C° 0 mm 3 m/s 738 mmHg 40%
06:00 +20°C° 0 mm 4 m/s 739 mmHg 37%
07:00 +22°C° 0 mm 5 m/s 739 mmHg 34%
08:00 +23°C° 0 mm 5 m/s 740 mmHg 30%
09:00 +27°C° 0.1 mm 6 m/s 740 mmHg 26%
10:00 +30°C° 0.1 mm 7 m/s 740 mmHg 21%
11:00 +33°C° 0.1 mm 7 m/s 740 mmHg 16%
12:00 +35°C° 0 mm 6 m/s 740 mmHg 15%
13:00 +36°C° 0 mm 6 m/s 739 mmHg 13%
14:00 +39°C° 0 mm 5 m/s 738 mmHg 11%
15:00 +37°C° 0 mm 4 m/s 738 mmHg 13%
16:00 +36°C° 0 mm 3 m/s 737 mmHg 14%
17:00 +35°C° 0 mm 3 m/s 737 mmHg 15%
18:00 +32°C° 0 mm 2 m/s 737 mmHg 17%
19:00 +30°C° 0 mm 2 m/s 738 mmHg 20%
20:00 +27°C° 0 mm 2 m/s 738 mmHg 22%
21:00 +26°C° 0 mm 1 m/s 738 mmHg 23%
22:00 +25°C° 0 mm 1 m/s 738 mmHg 25%
23:00 +24°C° 0 mm 1 m/s 738 mmHg 26%

Demain, 9 Mars, Mardi

Heure Température Précipitation Vent Pression Humidité
00:00 +23°C° 0 mm 1 m/s 738 mmHg 28%
01:00 +21°C° 0 mm 2 m/s 738 mmHg 30%
02:00 +21°C° 0 mm 2 m/s 738 mmHg 32%
03:00 +20°C° 0 mm 2 m/s 738 mmHg 35%
04:00 +20°C° 0 mm 2 m/s 738 mmHg 39%
05:00 +21°C° 0 mm 1 m/s 738 mmHg 42%
06:00 +23°C° 0 mm 1 m/s 739 mmHg 38%
07:00 +24°C° 0 mm 1 m/s 739 mmHg 35%
08:00 +26°C° 0 mm 1 m/s 740 mmHg 31%
09:00 +29°C° 0 mm 1 m/s 740 mmHg 26%
10:00 +33°C° 0 mm 1 m/s 740 mmHg 20%
11:00 +36°C° 0 mm 1 m/s 740 mmHg 15%
12:00 +37°C° 0 mm 1 m/s 739 mmHg 13%
13:00 +38°C° 0 mm 2 m/s 739 mmHg 12%
14:00 +39°C° 0 mm 2 m/s 738 mmHg 10%
15:00 +38°C° 0 mm 2 m/s 737 mmHg 10%
16:00 +37°C° 0 mm 2 m/s 737 mmHg 11%
17:00 +37°C° 0 mm 2 m/s 736 mmHg 11%
18:00 +34°C° 0 mm 2 m/s 737 mmHg 13%
19:00 +30°C° 0 mm 2 m/s 737 mmHg 14%
20:00 +28°C° 0 mm 2 m/s 738 mmHg 16%
21:00 +27°C° 0 mm 1 m/s 738 mmHg 17%
22:00 +26°C° 0 mm 1 m/s 738 mmHg 18%
23:00 +26°C° 0 mm 1 m/s 738 mmHg 19%

Après-demain, 10 Mars, Mercredi

Heure Température Précipitation Vent Pression Humidité
00:00 +25°C° 0 mm 1 m/s 737 mmHg 19%
01:00 +25°C° 0 mm 1 m/s 737 mmHg 20%
02:00 +24°C° 0 mm 1 m/s 737 mmHg 20%
03:00 +24°C° 0 mm 1 m/s 737 mmHg 21%
04:00 +21°C° 0 mm 0 m/s 737 mmHg 22%
05:00 +20°C° 0 mm 0 m/s 737 mmHg 23%
06:00 +22°C° 0 mm 0 m/s 738 mmHg 21%
07:00 +24°C° 0 mm 0 m/s 738 mmHg 19%
08:00 +28°C° 0 mm 1 m/s 739 mmHg 17%
09:00 +31°C° 0 mm 1 m/s 739 mmHg 15%
10:00 +34°C° 0 mm 1 m/s 739 mmHg 12%
11:00 +39°C° 0 mm 1 m/s 739 mmHg 10%
12:00 +39°C° 0 mm 1 m/s 738 mmHg 9%
13:00 +39°C° 0 mm 1 m/s 737 mmHg 9%
14:00 +40°C° 0 mm 1 m/s 736 mmHg 8%
15:00 +39°C° 0 mm 1 m/s 736 mmHg 9%
16:00 +37°C° 0 mm 1 m/s 736 mmHg 10%
17:00 +36°C° 0 mm 1 m/s 735 mmHg 10%
18:00 +33°C° 0 mm 1 m/s 736 mmHg 12%
19:00 +30°C° 0 mm 1 m/s 736 mmHg 15%
20:00 +28°C° 0 mm 1 m/s 737 mmHg 17%
21:00 +27°C° 0 mm 2 m/s 737 mmHg 17%
22:00 +27°C° 0 mm 2 m/s 737 mmHg 18%
23:00 +27°C° 0 mm 2 m/s 737 mmHg 18%

11 Mars, Jeudi

Heure Température Précipitation Vent Pression Humidité
00:00 +25°C° 0 mm 2 m/s 737 mmHg 20%
01:00 +24°C° 0 mm 2 m/s 737 mmHg 22%
02:00 +23°C° 0 mm 2 m/s 737 mmHg 24%
03:00 +23°C° 0 mm 1 m/s 737 mmHg 27%
04:00 +22°C° 0 mm 1 m/s 737 mmHg 29%
05:00 +21°C° 0 mm 1 m/s 737 mmHg 32%
06:00 +23°C° 0 mm 2 m/s 738 mmHg 30%
07:00 +25°C° 0 mm 2 m/s 739 mmHg 27%
08:00 +27°C° 0 mm 2 m/s 739 mmHg 24%
09:00 +30°C° 0 mm 2 m/s 739 mmHg 20%
10:00 +35°C° 0 mm 3 m/s 739 mmHg 16%
11:00 +38°C° 0 mm 3 m/s 740 mmHg 12%
12:00 +39°C° 0 mm 2 m/s 739 mmHg 10%
13:00 +39°C° 0 mm 2 m/s 738 mmHg 9%
14:00 +40°C° 0 mm 2 m/s 737 mmHg 7%
15:00 +40°C° 0 mm 1 m/s 737 mmHg 8%
16:00 +39°C° 0 mm 1 m/s 736 mmHg 8%
17:00 +37°C° 0 mm 1 m/s 736 mmHg 8%
18:00 +34°C° 0 mm 1 m/s 736 mmHg 10%
19:00 +31°C° 0 mm 1 m/s 737 mmHg 12%
20:00 +28°C° 0 mm 1 m/s 737 mmHg 14%
21:00 +27°C° 0 mm 1 m/s 737 mmHg 15%
22:00 +27°C° 0 mm 1 m/s 738 mmHg 16%
23:00 +26°C° 0 mm 2 m/s 738 mmHg 17%

12 Mars, Vendredi

Heure Température Précipitation Vent Pression Humidité
00:00 +25°C° 0 mm 2 m/s 738 mmHg 17%
01:00 +25°C° 0 mm 2 m/s 738 mmHg 18%
02:00 +24°C° 0 mm 2 m/s 738 mmHg 19%
03:00 +24°C° 0 mm 2 m/s 738 mmHg 19%
04:00 +24°C° 0 mm 2 m/s 738 mmHg 18%
05:00 +24°C° 0 mm 3 m/s 738 mmHg 18%
06:00 +25°C° 0 mm 2 m/s 739 mmHg 18%
07:00 +26°C° 0 mm 2 m/s 740 mmHg 18%
08:00 +27°C° 0 mm 2 m/s 740 mmHg 18%
09:00 +30°C° 0.1 mm 3 m/s 741 mmHg 16%
10:00 +34°C° 0.1 mm 3 m/s 741 mmHg 14%
11:00 +37°C° 0.1 mm 4 m/s 741 mmHg 12%
12:00 +38°C° 0 mm 4 m/s 740 mmHg 11%
13:00 +40°C° 0 mm 5 m/s 740 mmHg 11%
14:00 +40°C° 0 mm 5 m/s 739 mmHg 11%
15:00 +38°C° 0 mm 4 m/s 739 mmHg 13%
16:00 +37°C° 0 mm 3 m/s 739 mmHg 14%
17:00 +35°C° 0 mm 3 m/s 738 mmHg 16%
18:00 +33°C° 0 mm 3 m/s 739 mmHg 23%
19:00 +29°C° 0 mm 4 m/s 739 mmHg 29%
20:00 +26°C° 0 mm 5 m/s 740 mmHg 36%
21:00 +25°C° 0 mm 4 m/s 740 mmHg 39%
22:00 +24°C° 0 mm 3 m/s 740 mmHg 42%
23:00 +23°C° 0 mm 1 m/s 741 mmHg 44%

13 Mars, Samedi

Heure Température Précipitation Vent Pression Humidité
00:00 +21°C° 0 mm 2 m/s 740 mmHg 44%
01:00 +21°C° 0 mm 2 m/s 740 mmHg 44%
02:00 +21°C° 0 mm 2 m/s 740 mmHg 44%
03:00 +20°C° 0 mm 2 m/s 740 mmHg 43%
04:00 +21°C° 0 mm 1 m/s 740 mmHg 42%
05:00 +21°C° 0 mm 1 m/s 740 mmHg 41%
06:00 +23°C° 0 mm 1 m/s 741 mmHg 37%
07:00 +25°C° 0 mm 1 m/s 741 mmHg 33%
08:00 +27°C° 0 mm 1 m/s 742 mmHg 29%
09:00 +30°C° 0 mm 1 m/s 742 mmHg 24%
10:00 +34°C° 0 mm 2 m/s 742 mmHg 20%
11:00 +37°C° 0 mm 2 m/s 742 mmHg 16%
12:00 +38°C° 0 mm 3 m/s 741 mmHg 14%
13:00 +39°C° 0 mm 3 m/s 740 mmHg 12%
14:00 +41°C° 0 mm 4 m/s 739 mmHg 10%
15:00 +40°C° 0 mm 4 m/s 738 mmHg 10%
16:00 +38°C° 0 mm 4 m/s 738 mmHg 10%
17:00 +37°C° 0 mm 4 m/s 737 mmHg 10%
18:00 +35°C° 0 mm 3 m/s 737 mmHg 11%
19:00 +32°C° 0 mm 2 m/s 737 mmHg 12%
20:00 +30°C° 0 mm 2 m/s 738 mmHg 13%
21:00 +29°C° 0 mm 2 m/s 738 mmHg 15%
22:00 +27°C° 0 mm 1 m/s 738 mmHg 16%
23:00 +26°C° 0 mm 1 m/s 738 mmHg 17%
Voir plus

Nous avons besoin de votre consentement

Meteoprog et ses fournisseurs de services peuvent stocker et accéder à des données personnelles telles que des cookies, des identifiants d'appareils ou d'autres technologies similaires sur votre appareil et traiter ces données pour personnaliser le contenu et les publicités, ainsi que pour fournir des fonctionnalités de médias sociaux et analyser le trafic.

  • Stocker et/ou accéder à des informations sur votre appareil

    Des cookies, des identifiants d'appareils ou d'autres informations peuvent être stockés ou accessibles sur votre appareil aux fins indiquées ci-dessus.

  • Annonces et contenus personnalisés, mesure des annonces et des contenus, connaissance de l'audience et développement de produits

    Les annonces et le contenu peuvent être personnalisés en fonction d'un profil. D'autres données peuvent être ajoutées pour mieux personnaliser les annonces et le contenu. Les performances des publicités et du contenu peuvent être mesurées. Il est possible d'obtenir des informations sur le public qui a vu les publicités et le contenu. Ces données peuvent être utilisées pour développer ou améliorer l'expérience de l'utilisateur, les systèmes et les logiciels.

En cliquant sur "J'accepte", vous autorisez l'utilisation de cookies, des identifiants d'appareils, des balises web ou d'autres technologies similaires. Vos paramètres peuvent être modifiés dans le navigateur de votre appareil.

Dans certains cas, des intérêts légitimes peuvent être invoqués plutôt qu'un consentement. Vous pouvez en savoir plus à ce sujet dans notre Politique de confidentialité et de cookies.